H1 CPF 2 NER 2024 6 28 9 180 01 glonass107 H2 0706501 9107 32393 2024 6 28 0 0 0 2024 7 1 23 45 0 900 1 1 0 0 0 1 H9 10 0 60489 0.00000 0 -14275311.969 5133874.738 -20513683.649 10 0 60489 900.00000 0 -13017338.732 2851222.154 -21757467.936 10 0 60489 1800.00000 0 -11875663.554 367716.971 -22579008.612 10 0 60489 2700.00000 0 -10890326.015 -2261147.137 -22962384.784 10 0 60489 3600.00000 0 -10091251.716 -4973082.932 -22900167.743 10 0 60489 4500.00000 0 -9497062.317 -7701355.544 -22393563.422 10 0 60489 5400.00000 0 -9114377.218 -10377319.460 -21452389.291 10 0 60489 6300.00000 0 -8937635.569 -12933042.379 -20094886.084 10 0 60489 7200.00000 0 -8949445.561 -15303908.009 -18347367.701 10 0 60489 8100.00000 0 -9121446.063 -17431090.632 -16243715.567 10 0 60489 9000.00000 0 -9415644.202 -19263799.333 -13824726.581 10 0 60489 9900.00000 0 -9786172.603 -20761199.072 -11137326.639 10 0 60489 10800.00000 0 -10181392.211 -21893928.975 -8233664.311 10 0 60489 11700.00000 0 -10546251.997 -22645154.805 -5170101.739 10 0 60489 12600.00000 0 -10824805.775 -23011111.828 -2006122.082 10 0 60489 13500.00000 0 -10962779.486 -23001115.573 1196825.417 10 0 60489 14400.00000 0 -10910079.945 -22637040.256 4376520.145 10 0 60489 15300.00000 0 -10623138.271 -21952287.051 7471181.091 10 0 60489 16200.00000 0 -10066988.055 -20990285.875 10420670.070 10 0 60489 17100.00000 0 -9216989.429 -19802594.092 13167663.399 10 0 60489 18000.00000 0 -8060125.040 -18446672.468 15658768.737 10 0 60489 18900.00000 0 -6595812.088 -16983432.328 17845565.076 10 0 60489 19800.00000 0 -4836194.841 -15474657.344 19685545.464 10 0 60489 20700.00000 0 -2805904.069 -13980408.543 21142944.098 10 0 60489 21600.00000 0 -541292.139 -12556521.601 22189431.787 10 0 60489 22500.00000 0 1910825.489 -11252301.415 22804666.517 10 0 60489 23400.00000 0 4494870.920 -10108510.461 22976688.592 10 0 60489 24300.00000 0 7148576.768 -9155734.939 22702152.945 10 0 60489 25200.00000 0 9805345.958 -8413196.725 21986394.199 10 0 60489 26100.00000 0 12396800.919 -7888060.382 20843323.277 10 0 60489 27000.00000 0 14855416.737 -7575263.662 19295157.466 10 0 60489 27900.00000 0 17117129.236 -7457877.915 17371988.979 10 0 60489 28800.00000 0 19123809.797 -7507982.558 15111200.171 10 0 60489 29700.00000 0 20825504.169 -7688016.081 12556736.536 10 0 60489 30600.00000 0 22182342.227 -7952545.959 9758251.398 10 0 60489 31500.00000 0 23166039.287 -8250382.089 6770138.916 10 0 60489 32400.00000 0 23760926.610 -8526943.785 3650474.275 10 0 60489 33300.00000 0 23964468.536 -8726779.590 459881.916 10 0 60489 34200.00000 0 23787245.193 -8796132.612 -2739645.760 10 0 60489 35100.00000 0 23252402.299 -8685442.186 -5885955.777 10 0 60489 36000.00000 0 22394592.005 -8351675.382 -8917944.131 10 0 60489 36900.00000 0 21258450.117 -7760389.122 -11776743.500 10 0 60489 37800.00000 0 19896674.498 -6887435.200 -14406865.813 10 0 60489 38700.00000 0 18367785.962 -5720235.624 -16757277.401 10 0 60489 39600.00000 0 16733666.184 -4258573.896 -18782385.998 10 0 60489 40500.00000 0 15056976.061 -2514868.262 -20442920.822 10 0 60489 41400.00000 0 13398562.641 -513914.617 -21706689.257 10 0 60489 42300.00000 0 11814962.896 1707891.088 -22549196.083 10 0 60489 43200.00000 0 10356108.164 4103819.458 -22954114.005 10 0 60489 44100.00000 0 9063324.459 6618511.640 -22913596.954 10 0 60489 45000.00000 0 7967711.375 9190050.871 -22428430.549 10 0 60489 45900.00000 0 7088966.385 11752316.644 -21508017.037 10 0 60489 46800.00000 0 6434702.814 14237524.818 -20170194.983 10 0 60489 47700.00000 0 6000289.210 16578849.133 -18440896.881 10 0 60489 48600.00000 0 5769216.167 18713016.078 -16353650.858 10 0 60489 49500.00000 0 5713974.680 20582765.943 -13948935.444 10 0 60489 50400.00000 0 5797408.718 22139078.027 -11273399.263 10 0 60489 51300.00000 0 5974484.787 23343067.617 -8378960.107 10 0 60489 52200.00000 0 6194403.640 24167475.691 -5321800.373 10 0 60489 53100.00000 0 6402964.712 24597689.097 -2161278.033 10 0 60489 54000.00000 0 6545083.029 24632248.479 1041225.779 10 0 60489 54900.00000 0 6567351.659 24282822.656 4223500.103 10 0 60489 55800.00000 0 6420540.693 23573650.496 7323714.853 10 0 60489 56700.00000 0 6061926.213 22540473.843 10281624.964 10 0 60489 57600.00000 0 5457349.835 21229006.432 13039744.088 10 0 60489 58500.00000 0 4582920.696 19693003.317 15544464.583 10 0 60489 59400.00000 0 3426286.872 17992012.156 17747101.666 10 0 60489 60300.00000 0 1987421.351 16188900.925 19604841.271 10 0 60489 61200.00000 0 278888.188 14347265.970 21081573.083 10 0 60489 62100.00000 0 -1674423.648 12528829.115 22148592.693 10 0 60489 63000.00000 0 -3836088.910 10790932.744 22785159.427 10 0 60489 63900.00000 0 -6159425.396 9184237.527 22978899.212 10 0 60489 64800.00000 0 -8589211.661 7750718.707 22726044.906 10 0 60489 65700.00000 0 -11063772.478 6522044.218 22031509.551 10 0 60489 66600.00000 0 -13517345.944 5518401.825 20908791.173 10 0 60489 67500.00000 0 -15882634.321 4747823.550 19379710.884 10 0 60489 68400.00000 0 -18093432.894 4206034.828 17473989.196 10 0 60489 69300.00000 0 -20087227.621 3876833.733 15228668.533 10 0 60489 70200.00000 0 -21807653.555 3732983.390 12687392.920 10 0 60489 71100.00000 0 -23206711.576 3737579.021 9899558.635 10 0 60489 72000.00000 0 -24246650.956 3845831.061 6919352.293 10 0 60489 72900.00000 0 -24901439.176 4007188.142 3804695.144 10 0 60489 73800.00000 0 -25157757.667 4167709.364 616114.318 10 0 60489 74700.00000 0 -25015482.082 4272584.656 -2584436.590 10 0 60489 75600.00000 0 -24487627.393 4268695.806 -5734784.213 10 0 60489 76500.00000 0 -23599760.684 4107109.029 -8773745.439 10 0 60489 77400.00000 0 -22388906.903 3745392.956 -11642316.774 10 0 60489 78300.00000 0 -20901994.148 3149663.408 -14284819.663 10 0 60489 79200.00000 0 -19193904.258 2296268.019 -16649979.441 10 0 60489 80100.00000 0 -17325210.874 1173039.063 -18691917.081 10 0 60489 81000.00000 0 -15359699.927 -219938.899 -20371034.886 10 0 60489 81900.00000 0 -13361776.244 -1870079.519 -21654779.515 10 0 60489 82800.00000 0 -11393864.411 -3752574.603 -22518268.209 10 0 60489 83700.00000 0 -9513911.846 -5831192.725 -22944766.777 10 0 60489 84600.00000 0 -7773097.498 -8059564.239 -22926010.749 10 0 60489 85500.00000 0 -6213840.812 -10382900.205 -22462363.878 10 0 60490 0.00000 0 -4868193.103 -12740074.620 -21562811.300 10 0 60490 900.00000 0 -3756676.660 -15065985.696 -20244786.887 10 0 60490 1800.00000 0 -2887620.830 -17294095.829 -18533839.148 10 0 60490 2700.00000 0 -2257019.489 -19359049.660 -16463140.079 10 0 60490 3600.00000 0 -1848916.874 -21199258.808 -14072846.898 10 0 60490 4500.00000 0 -1636304.169 -22759347.270 -11409327.997 10 0 60490 5400.00000 0 -1582488.684 -23992355.531 -8524267.504 10 0 60490 6300.00000 0 -1642877.520 -24861611.356 -5473665.299 10 0 60490 7200.00000 0 -1767100.020 -25342188.889 -2316751.591 10 0 60490 8100.00000 0 -1901378.930 -25421894.716 885162.976 10 0 60490 9000.00000 0 -1991049.480 -25101739.293 4069879.258 10 0 60490 9900.00000 0 -1983119.211 -24395873.661 7175520.071 10 0 60490 10800.00000 0 -1828759.496 -23330993.917 10141735.240 10 0 60490 11700.00000 0 -1485622.478 -21945238.274 12910877.353 10 0 60490 12600.00000 0 -919884.493 -20286622.985 15429124.876 10 0 60490 13500.00000 0 -107928.599 -18411082.760 17647530.465 10 0 60490 14400.00000 0 962405.925 -16380197.889 19522973.917 10 0 60490 15300.00000 0 2291060.958 -14258703.329 21019001.147 10 0 60490 16200.00000 0 3865517.068 -12111884.005 22106533.009 10 0 60490 17100.00000 0 5661082.636 -10002965.092 22764430.383 10 0 60490 18000.00000 0 7641703.644 -7990606.111 22979904.776 10 0 60490 18900.00000 0 9761261.371 -6126603.064 22748766.689 10 0 60490 19800.00000 0 11965304.814 -4453893.971 22075507.079 10 0 60490 20700.00000 0 14193146.370 -3004950.373 20973210.363 10 0 60490 21600.00000 0 16380234.059 -1800621.148 19463300.585 10 0 60490 22500.00000 0 18460701.884 -849475.958 17575125.467 10 0 60490 23400.00000 0 20369992.222 -147674.763 15345386.210 10 0 60490 24300.00000 0 22047440.976 320632.279 12817423.859 10 0 60490 25200.00000 0 23438717.534 582392.520 10040375.880 10 0 60490 26100.00000 0 24498017.433 674265.678 7068219.319 10 0 60490 27000.00000 0 25189915.908 640825.389 3958719.184 10 0 60490 27900.00000 0 25490804.606 532424.470 772302.750 10 0 60490 28800.00000 0 25389851.241 402815.137 -2429117.933 10 0 60490 29700.00000 0 24889442.093 306625.769 -5583351.945 10 0 60490 30600.00000 0 24005088.999 296801.835 -8629139.914 10 0 60490 31500.00000 0 22764805.082 422119.988 -11507344.918 10 0 60490 32400.00000 0 21207975.824 724881.097 -14162100.485 10 0 60490 33300.00000 0 19383773.129 1238880.277 -16541893.279 10 0 60490 34200.00000 0 17349179.158 1987740.086 -18600559.563 10 0 60490 35100.00000 0 15166702.729 2983677.645 -20298176.501 10 0 60490 36000.00000 0 12901883.660 4226758.133 -21601831.528 10 0 60490 36900.00000 0 10620688.939 5704666.632 -22486255.555 10 0 60490 37800.00000 0 8386908.771 7393008.654 -22934308.425 10 0 60490 38700.00000 0 6259660.186 9256127.709 -22937307.869 10 0 60490 39600.00000 0 4291101.266 11248406.732 -22495196.023 10 0 60490 40500.00000 0 2524450.042 13316000.140 -21616540.579 10 0 60490 41400.00000 0 992389.438 15398925.437 -20318370.499 10 0 60490 42300.00000 0 -284076.400 17433428.159 -18625849.225 10 0 60490 43200.00000 0 -1296267.765 19354522.545 -16571791.233 10 0 60490 44100.00000 0 -2047951.078 21098602.702 -14196030.641 10 0 60490 45000.00000 0 -2554932.398 22606015.780 -11544653.448 10 0 60490 45900.00000 0 -2844140.594 23823489.917 -8669107.617 10 0 60490 46800.00000 0 -2952239.409 24706315.435 -5625207.733 10 0 60490 47700.00000 0 -2923827.496 25220187.723 -2472053.245 10 0 60490 48600.00000 0 -2809302.930 25342634.206 729118.833 10 0 60490 49500.00000 0 -2662483.017 25063965.038 3916124.370 10 0 60490 50400.00000 0 -2538080.671 24387707.119 7027042.253 10 0 60490 51300.00000 0 -2489144.825 23330502.673 10001420.273 10 0 60490 52200.00000 0 -2564573.935 21921476.233 12781452.856 10 0 60490 53100.00000 0 -2806808.607 20201096.221 15313107.268 10 0 60490 54000.00000 0 -3249801.784 18219578.640 17547176.051 10 0 60490 54900.00000 0 -3917353.162 16034899.510 19440235.047 10 0 60490 55800.00000 0 -4821879.120 13710499.144 20955488.298 10 0 60490 56700.00000 0 -5963670.961 11312774.061 22063483.502 10 0 60490 57600.00000 0 -7330673.780 8908461.055 22742684.342 10 0 60490 58500.00000 0 -8898796.244 6562022.309 22979888.765 10 0 60490 59400.00000 0 -10632739.352 4333140.154 22770485.348 10 0 60490 60300.00000 0 -12487310.445 2274425.331 22118542.911 10 0 60490 61200.00000 0 -14409168.315 429433.577 21036731.683 10 0 60490 62100.00000 0 -16338927.186 -1168927.591 19546077.496 10 0 60490 63000.00000 0 -18213532.197 -2499536.417 17675553.581 10 0 60490 63900.00000 0 -19968807.385 -3553692.337 15461517.676 10 0 60490 64800.00000 0 -21542069.829 -4335223.888 12947005.107 10 0 60490 65700.00000 0 -22874700.576 -4860065.870 10180891.387 10 0 60490 66600.00000 0 -23914564.502 -5155324.798 7216940.536 10 0 60490 67500.00000 0 -24618177.525 -5257873.263 4112757.667 10 0 60490 68400.00000 0 -24952529.983 -5212533.733 928666.448 10 0 60490 69300.00000 0 -24896489.452 -5069929.627 -2273466.367 10 0 60490 70200.00000 0 -24441723.932 -4884095.581 -5431435.979 10 0 60490 71100.00000 0 -23593106.588 -4709948.899 -8483910.282 10 0 60490 72000.00000 0 -22368585.080 -4600730.002 -11371622.252 10 0 60490 72900.00000 0 -20798521.081 -4605520.753 -14038520.547 10 0 60490 73800.00000 0 -18924527.787 -4766946.110 -16432855.856 10 0 60490 74700.00000 0 -16797854.212 -5119156.567 -18508181.997 10 0 60490 75600.00000 0 -14477383.832 -5686176.856 -20224252.723 10 0 60490 76500.00000 0 -12027331.019 -6480690.778 -21547797.373 10 0 60490 77400.00000 0 -9514730.968 -7503313.687 -22453161.000 10 0 60490 78300.00000 0 -7006827.160 -8742383.662 -22922797.274 10 0 60490 79200.00000 0 -4568464.235 -10174280.766 -22947605.270 10 0 60490 80100.00000 0 -2259593.822 -11764261.803 -22527104.062 10 0 60490 81000.00000 0 -132995.893 -13467776.562 -21669442.031 10 0 60490 81900.00000 0 1767690.774 -15232211.533 -20391240.676 10 0 60490 82800.00000 0 3409548.221 -16998989.198 -18717275.710 10 0 60490 83700.00000 0 4771504.404 -18705936.128 -16680001.131 10 0 60490 84600.00000 0 5844957.907 -20289821.700 -14318924.837 10 0 60490 85500.00000 0 6633877.151 -21688961.787 -11679847.235 10 0 60491 0.00000 0 7154370.819 -22845778.707 -8813977.179 10 0 60491 900.00000 0 7433748.568 -23709210.778 -5776940.301 10 0 60491 1800.00000 0 7509111.605 -24236868.733 -2627702.504 10 0 60491 2700.00000 0 7425534.110 -24396850.108 572575.676 10 0 60491 3600.00000 0 7233912.162 -24169133.209 3761727.758 10 0 60491 4500.00000 0 6988572.007 -23546492.016 6877791.090 10 0 60491 5400.00000 0 6744739.435 -22534892.763 9860213.538 10 0 60491 6300.00000 0 6555977.985 -21153354.756 12651033.189 10 0 60491 7200.00000 0 6471705.097 -19433280.678 15196007.620 10 0 60491 8100.00000 0 6534891.945 -17417283.854 17445670.449 10 0 60491 9000.00000 0 6780044.943 -15157561.142 19356294.420 10 0 60491 9900.00000 0 7231554.874 -12713879.130 20890742.223 10 0 60491 10800.00000 0 7902484.058 -10151257.427 22019188.604 10 0 60491 11700.00000 0 8793843.418 -7537445.342 22719699.925 10 0 60491 12600.00000 0 9894390.681 -4940296.793 22978660.173 10 0 60491 13500.00000 0 11180958.966 -2425152.287 22791035.339 10 0 60491 14400.00000 0 12619302.796 -52336.409 22160471.229 10 0 60491 15300.00000 0 14165426.752 2125125.654 21099222.829 10 0 60491 16200.00000 0 15767341.767 4063478.292 19627916.556 10 0 60491 17100.00000 0 17367175.965 5729811.184 17775149.804 10 0 60491 18000.00000 0 18903551.983 7103175.814 15576935.363 10 0 60491 18900.00000 0 20314131.295 8175197.313 13076001.223 10 0 60491 19800.00000 0 21538218.893 8950157.266 10320959.164 10 0 60491 20700.00000 0 22519318.830 9444545.304 7365358.227 10 0 60491 21600.00000 0 23207533.070 9686099.660 4266641.507 10 0 60491 22500.00000 0 23561702.522 9712378.420 1085026.780 10 0 60491 23400.00000 0 23551199.852 9568922.986 -2117666.899 10 0 60491 24300.00000 0 23157298.360 9307092.472 -5279223.312 10 0 60491 25200.00000 0 22374059.093 8981661.606 -8338240.064 10 0 60491 26100.00000 0 21208698.648 8648284.593 -11235322.377 10 0 60491 27000.00000 0 19681422.088 8360932.848 -13914236.231 10 0 60491 27900.00000 0 17824727.828 8169415.432 -16322998.337 10 0 60491 28800.00000 0 15682213.453 8117087.271 -18414881.854 10 0 60491 29700.00000 0 13306932.258 8238842.039 -20149318.708 10 0 60491 30600.00000 0 10759368.782 8559474.474 -21492681.537 10 0 60491 31500.00000 0 8105117.315 9092481.147 -22418930.760 10 0 60491 32400.00000 0 5412359.424 9839350.302 -22910114.918 10 0 60491 33300.00000 0 2749244.546 10789370.854 -22956715.259 10 0 60491 34200.00000 0 181281.588 11919969.016 -22557828.359 10 0 60491 35100.00000 0 -2231151.227 13197559.018 -21721183.534 10 0 60491 36000.00000 0 -4435076.018 14578873.059 -20462994.694 10 0 60491 36900.00000 0 -6386871.208 16012715.583 -18807649.283 10 0 60491 37800.00000 0 -8053833.633 17442069.258 -16787239.859 10 0 60491 38700.00000 0 -9415282.791 18806465.216 -14440946.736 10 0 60491 39600.00000 0 -10463162.177 20044518.786 -11814282.979 10 0 60491 40500.00000 0 -11202113.467 21096524.758 -8958215.735 10 0 60491 41400.00000 0 -11649021.292 21907003.370 -5928180.359 10 0 60491 42300.00000 0 -11832048.452 22427089.876 -2783006.156 10 0 60491 43200.00000 0 -11789202.879 22616666.828 416225.555 10 0 60491 44100.00000 0 -11566497.398 22446148.747 3607368.794 10 0 60491 45000.00000 0 -11215780.621 21897843.269 6728422.276 10 0 60491 45900.00000 0 -10792331.240 20966830.637 9718736.874 10 0 60491 46800.00000 0 -10352318.080 19661323.557 12520197.233 10 0 60491 47700.00000 0 -9950233.919 18002491.456 15078354.067 10 0 60491 48600.00000 0 -9636412.200 16023755.586 17343484.780 10 0 60491 49500.00000 0 -9454732.124 13769583.784 19271561.577 10 0 60491 50400.00000 0 -9440609.614 11293834.642 20825108.149 10 0 60491 51300.00000 0 -9619359.404 8657719.650 21973928.385 10 0 60491 52200.00000 0 -10004997.816 5927467.772 22695693.139 10 0 60491 53100.00000 0 -10599537.111 3171789.263 22976373.885 10 0 60491 54000.00000 0 -11392801.601 459243.752 22810515.066 10 0 60491 54900.00000 0 -12362773.759 -2144378.553 22201340.037 10 0 60491 55800.00000 0 -13476456.247 -4578554.194 21160688.584 10 0 60491 56700.00000 0 -14691214.125 -6790299.222 19708787.184 10 0 60491 57600.00000 0 -15956541.266 -8736123.613 17873856.307 10 0 60491 58500.00000 0 -17216177.078 -10383586.794 15691562.138 10 0 60491 59400.00000 0 -18410484.759 -11712390.417 13204323.143 10 0 60491 60300.00000 0 -19478991.178 -12714963.864 10460484.715 10 0 60491 61200.00000 0 -20362981.368 -13396519.112 7513377.871 10 0 60491 62100.00000 0 -21008038.243 -13774573.995 4420280.348 10 0 60491 63000.00000 0 -21366420.207 -13877965.177 1241300.474 10 0 60491 63900.00000 0 -21399176.078 -13745393.697 -1961794.061 10 0 60491 64800.00000 0 -21077907.802 -13423565.664 -5126779.349 10 0 60491 65700.00000 0 -20386106.251 -12965007.691 -8192186.402 10 0 60491 66600.00000 0 -19320003.489 -12425650.324 -11098496.300 10 0 60491 67500.00000 0 -17888905.256 -11862282.319 -13789295.792 10 0 60491 68400.00000 0 -16114989.371 -11329983.853 -16212370.803 10 0 60491 69300.00000 0 -14032578.131 -10879647.368 -18320716.674 10 0 60491 70200.00000 0 -11686914.763 -10555690.745 -20073445.891 10 0 60491 71100.00000 0 -9132494.538 -10394059.167 -21436576.233 10 0 60491 72000.00000 0 -6431019.584 -10420599.675 -22383684.696 10 0 60491 72900.00000 0 -3649061.815 -10649876.614 -22896415.242 10 0 60491 73800.00000 0 -855530.239 -11084477.685 -22964831.187 10 0 60491 74700.00000 0 1880953.101 -11714839.753 -22587605.884 10 0 60491 75600.00000 0 4494660.726 -12519601.926 -21772048.299 10 0 60491 76500.00000 0 6925243.799 -13466471.462 -20533962.992 10 0 60491 77400.00000 0 9119990.631 -14513566.712 -18897346.977 10 0 60491 78300.00000 0 11035766.894 -15611181.332 -16893928.860 10 0 60491 79200.00000 0 12640557.856 -16703896.404 -14562558.562 10 0 60491 80100.00000 0 13914549.290 -17732952.256 -11948458.758 10 0 60491 81000.00000 0 14850702.784 -18638780.747 -9102351.891 10 0 60491 81900.00000 0 15454802.178 -19363591.692 -6079479.126 10 0 60491 82800.00000 0 15744969.861 -19853904.472 -2938529.928 10 0 60491 83700.00000 0 15750673.916 -20062917.892 259497.066 10 0 60491 84600.00000 0 15511268.536 -19952617.825 3452479.739 10 0 60491 85500.00000 0 15074129.830 -19495533.025 6578381.342 10 0 60492 0.00000 0 14492466.369 -18676064.257 9576458.367 10 0 60492 900.00000 0 13822897.163 -17491329.192 12388445.069 10 0 60492 1800.00000 0 13122900.774 -15951487.619 14959687.121 10 0 60492 2700.00000 0 12448242.807 -14079530.738 17240207.362 10 0 60492 3600.00000 0 11850491.615 -11910543.353 19185678.643 10 0 60492 4500.00000 0 11374727.187 -9490468.536 20758286.396 10 0 60492 5400.00000 0 11057540.226 -6874425.596 21927463.960 10 0 60492 6300.00000 0 10925405.966 -4124650.753 22670486.568 10 0 60492 7200.00000 0 10993501.433 -1308145.641 22972912.702 10 0 60492 8100.00000 0 11265016.073 1505869.157 22828864.448 10 0 60492 9000.00000 0 11730984.904 4248590.297 22241141.616 10 0 60492 9900.00000 0 12370651.342 6854248.616 21221167.451 10 0 60492 10800.00000 0 13152344.600 9262598.721 19788766.963 10 0 60492 11700.00000 0 14034834.887 11421178.391 17971781.990 10 0 60492 12600.00000 0 14969109.480 13287244.498 15805530.279 10 0 60492 13500.00000 0 15900494.962 14829305.594 13332118.807 10 0 60492 14400.00000 0 16771036.190 16028188.138 10599624.497 10 0 60492 15300.00000 0 17522031.561 16877592.791 7661158.155 10 0 60492 16200.00000 0 18096617.415 17384118.568 4573829.868 10 0 60492 17100.00000 0 18442292.176 17566755.072 1397636.165 10 0 60492 18000.00000 0 18513273.245 17455865.331 -1805709.022 10 0 60492 18900.00000 0 18272586.706 17091703.312 -4973976.436 10 0 60492 19800.00000 0 17693801.150 16522529.740 -8045632.761 10 0 60492 20700.00000 0 16762331.994 15802406.716 -10961037.041 10 0 60492 21600.00000 0 15476260.852 14988765.042 -13663598.711 10 0 60492 22500.00000 0 13846634.949 14139847.477 -16100874.613 10 0 60492 23400.00000 0 11897233.476 13312136.157 -18225583.775 10 0 60492 24300.00000 0 9663810.099 12557872.694 -19996520.572 10 0 60492 25200.00000 0 7192842.609 11922775.290 -21379349.100 10 0 60492 26100.00000 0 4539841.199 11444048.646 -22347263.989 10 0 60492 27000.00000 0 1767284.976 11148769.912 -22881505.558 10 0 60492 27900.00000 0 -1057728.427 11052718.109 -22971719.973 10 0 60492 28800.00000 0 -3866023.521 11159695.771 -22616157.941 10 0 60492 29700.00000 0 -6588973.550 11461371.069 -21821708.386 10 0 60492 30600.00000 0 -9161105.175 11937646.971 -20603766.497 10 0 60492 31500.00000 0 -11522574.214 12557542.043 -18985938.451 10 0 60492 32400.00000 0 -13621410.695 13280546.175 -16999588.120 10 0 60492 33300.00000 0 -15415440.851 14058394.632 -14683233.878 10 0 60492 34200.00000 0 -16873806.850 14837186.202 -12081806.526 10 0 60492 35100.00000 0 -17978021.642 15559756.636 -9245782.047 10 0 60492 36000.00000 0 -18722515.480 16168207.586 -6230205.429 10 0 60492 36900.00000 0 -19114651.795 16606484.396 -3093624.143 10 0 60492 37800.00000 0 -19174212.285 16822893.767 103048.178 10 0 60492 38700.00000 0 -18932373.402 16772454.510 3297715.727 10 0 60492 39600.00000 0 -18430217.795 16418981.440 6428308.854 10 0 60492 40500.00000 0 -17716843.986 15736813.520 9433992.865 10 0 60492 41400.00000 0 -16847154.505 14712112.269 12256353.293 10 0 60492 42300.00000 0 -15879416.322 13343674.560 14840534.107 10 0 60492 43200.00000 0 -14872696.960 11643224.375 17136306.352 10 0 60492 44100.00000 0 -13884284.826 9635170.012 19099046.226 10 0 60492 45000.00000 0 -12967202.826 7355835.779 20690603.444 10 0 60492 45900.00000 0 -12167920.206 4852199.224 21880043.120 10 0 60492 46800.00000 0 -11524359.019 2180185.602 22644246.920 10 0 60492 47700.00000 0 -11064279.110 -597410.163 22968362.032 10 0 60492 48600.00000 0 -10804109.387 -3413288.342 22846089.498 10 0 60492 49500.00000 0 -10748274.371 -6198198.456 22279806.454 10 0 60492 50400.00000 0 -10889044.127 -8883577.011 21280520.007 10 0 60492 51300.00000 0 -11206913.661 -11404159.902 19867653.597 10 0 60492 52200.00000 0 -11671495.633 -13700461.506 18068669.823 10 0 60492 53100.00000 0 -12242888.580 -15721017.909 15918536.868 10 0 60492 54000.00000 0 -12873462.788 -17424301.475 13459048.626 10 0 60492 54900.00000 0 -13509988.309 -18780227.630 10738011.516 10 0 60492 55800.00000 0 -14096014.993 -19771191.667 7808313.719 10 0 60492 56700.00000 0 -14574403.727 -20392593.065 4726894.947 10 0 60492 57600.00000 0 -14889901.497 -20652826.335 1553636.953 10 0 60492 58500.00000 0 -14991650.945 -20572739.782 -1649803.260 10 0 60492 59400.00000 0 -14835527.867 -20184586.089 -4821194.412 10 0 60492 60300.00000 0 -14386207.277 -19530509.914 -7898942.277 10 0 60492 61200.00000 0 -13618870.231 -18660637.257 -10823287.338 10 0 60492 62100.00000 0 -12520478.851 -17630847.957 -13537465.173 10 0 60492 63000.00000 0 -11090565.183 -16500325.823 -15988806.911 10 0 60492 63900.00000 0 -9341500.116 -15328990.039 -18129758.430 10 0 60492 64800.00000 0 -7298230.373 -14174916.091 -19918798.857 10 0 60492 65700.00000 0 -4997493.806 -13091854.582 -21321241.067 10 0 60492 66600.00000 0 -2486544.947 -12126951.848 -22309899.295 10 0 60492 67500.00000 0 178556.982 -11318767.561 -22865611.633 10 0 60492 68400.00000 0 2935027.401 -10695671.845 -22977607.949 10 0 60492 69300.00000 0 5715717.689 -10274688.474 -22643716.594 10 0 60492 70200.00000 0 8451661.572 -10060832.061 -21870406.223 10 0 60492 71100.00000 0 11074702.063 -10046966.527 -20672661.926 10 0 60492 72000.00000 0 13520090.969 -10214190.479 -19073697.872 10 0 60492 72900.00000 0 15728954.031 -10532733.153 -17104511.584 10 0 60492 73800.00000 0 17650520.129 -10963323.282 -14803287.836 10 0 60492 74700.00000 0 19244022.491 -11458973.389 -12214663.071 10 0 60492 75600.00000 0 20480193.260 -11967104.502 -9388863.906 10 0 60492 76500.00000 0 21342289.531 -12431921.794 -6380735.873 10 0 60492 77400.00000 0 21826608.289 -12796940.873 -3248680.845 10 0 60492 78300.00000 0 21942469.048 -13007557.786 -53523.659 10 0 60492 79200.00000 0 21711665.256 -13013553.741 3142670.060 10 0 60492 80100.00000 0 21167407.857 -12771428.015 6277801.571 10 0 60492 81000.00000 0 20352805.860 -12246459.617 9290948.325 10 0 60492 81900.00000 0 19318948.292 -11414409.574 12123550.946 10 0 60492 82800.00000 0 18122668.742 -10262790.848 14720554.277 10 0 60492 83700.00000 0 16824087.074 -8791651.075 17031479.948 10 0 60492 84600.00000 0 15484032.145 -7013833.904 19011409.376 10 0 60492 85500.00000 0 14161454.315 -4954706.627 20621857.932 99